KLM39M EHAM-EGPH

Flight info

Callsign KLM39M
Flight time 1h 5m
Altitude 34000
Route BERGI L602 SUPUR P1 GODOS DCT ROXAT DCT BAZNA DCT ANMAZ DCT AGPED
Aircraft B738/M-SDE2E3FGIJ1RWY/LB1

Departure

Time 2026-05-07 15:59
Airport Amsterdam Airport Schiphol (EHAM)

Arrival

Time 2026-05-07 17:04
Airport Edinburgh Airport (EGPH)
Time Latitude Longitude Altitude Speed Heading
2026-05-07 15:27 52.30928 4.76888 -2 ft 0 kts 137°
2026-05-07 15:46 52.30960 4.76846 -2 ft 4 kts 145°
2026-05-07 15:46 52.30982 4.76821 -2 ft 4 kts 139°
2026-05-07 15:46 52.30997 4.76798 -2 ft 4 kts 112°
2026-05-07 15:47 52.31000 4.76757 -2 ft 4 kts 83°
2026-05-07 15:47 52.31001 4.76761 -2 ft 4 kts 74°
2026-05-07 15:47 52.31016 4.76794 -2 ft 4 kts 45°
2026-05-07 15:47 52.31038 4.76821 -2 ft 4 kts 35°
2026-05-07 15:48 52.31049 4.76833 -2 ft 1 kts 33°
2026-05-07 15:50 52.31052 4.76836 -2 ft 2 kts 33°
2026-05-07 15:50 52.31081 4.76867 -2 ft 7 kts 33°
2026-05-07 15:50 52.31133 4.76922 -2 ft 11 kts 33°
2026-05-07 15:51 52.31204 4.76999 -2 ft 14 kts 33°
2026-05-07 15:51 52.31287 4.77089 -2 ft 14 kts 34°
2026-05-07 15:51 52.31368 4.77176 -2 ft 14 kts 30°
2026-05-07 15:51 52.31459 4.77196 -2 ft 13 kts
2026-05-07 15:52 52.31548 4.77192 -2 ft 13 kts 333°
2026-05-07 15:52 52.31567 4.77062 -2 ft 12 kts 266°
2026-05-07 15:52 52.31562 4.76913 -2 ft 15 kts 267°
2026-05-07 15:52 52.31556 4.76717 -2 ft 19 kts 267°
2026-05-07 15:53 52.31547 4.76480 -2 ft 23 kts 266°
2026-05-07 15:53 52.31537 4.76198 -2 ft 26 kts 266°
2026-05-07 15:53 52.31527 4.75901 -2 ft 26 kts 266°
2026-05-07 15:53 52.31518 4.75619 -2 ft 24 kts 266°
2026-05-07 15:54 52.31508 4.75355 -2 ft 23 kts 266°
2026-05-07 15:54 52.31500 4.75101 -2 ft 22 kts 266°
2026-05-07 15:54 52.31492 4.74855 -2 ft 20 kts 267°
2026-05-07 15:54 52.31491 4.74704 -2 ft 12 kts 287°
2026-05-07 15:55 52.31535 4.74665 -2 ft 7 kts 356°
2026-05-07 15:55 52.31567 4.74662 -2 ft 2 kts 356°
2026-05-07 15:57 52.31569 4.74662 -2 ft 1 kts 356°
2026-05-07 15:58 52.31610 4.74659 -2 ft 11 kts
2026-05-07 15:58 52.31668 4.74760 -2 ft 18 kts 83°
2026-05-07 15:58 52.31686 4.75298 -4 ft 80 kts 86°
2026-05-07 15:58 52.31728 4.76534 -3 ft 136 kts 86°
2026-05-07 15:59 52.31783 4.78273 210 ft 161 kts 85°
2026-05-07 15:59 52.31835 4.80148 763 ft 170 kts 80°
2026-05-07 15:59 52.32333 4.81899 1255 ft 176 kts 40°
2026-05-07 15:59 52.33484 4.82701 1703 ft 190 kts
2026-05-07 16:00 52.34813 4.82251 2194 ft 205 kts 334°
2026-05-07 16:00 52.36132 4.81093 2507 ft 219 kts 335°
2026-05-07 16:00 52.37512 4.79923 2995 ft 226 kts 334°
2026-05-07 16:00 52.38891 4.78633 3531 ft 234 kts 323°
2026-05-07 16:01 52.40152 4.76696 3741 ft 261 kts 316°
2026-05-07 16:01 52.41447 4.74556 4442 ft 266 kts 315°
2026-05-07 16:01 52.42750 4.72384 5243 ft 268 kts 314°
2026-05-07 16:01 52.44064 4.70217 5841 ft 269 kts 314°
2026-05-07 16:02 52.45408 4.68035 5988 ft 273 kts 314°
2026-05-07 16:02 52.46868 4.66001 6371 ft 281 kts 330°
2026-05-07 16:02 52.48650 4.64715 7226 ft 278 kts 337°
2026-05-07 16:02 52.50458 4.63552 7954 ft 281 kts 338°
2026-05-07 16:03 52.52291 4.62394 8680 ft 284 kts 338°
2026-05-07 16:03 52.54146 4.61217 9411 ft 286 kts 337°
2026-05-07 16:03 52.55851 4.59569 10145 ft 286 kts 317°
2026-05-07 16:03 52.57294 4.57226 10497 ft 302 kts 313°
2026-05-07 16:04 52.58795 4.54644 10675 ft 323 kts 313°
2026-05-07 16:04 52.60370 4.51926 10843 ft 342 kts 313°
2026-05-07 16:04 52.62049 4.49055 11253 ft 352 kts 313°
2026-05-07 16:04 52.63773 4.46140 11860 ft 357 kts 313°
2026-05-07 16:05 52.65517 4.43217 12607 ft 359 kts 313°
2026-05-07 16:05 52.67280 4.40278 13320 ft 362 kts 314°
2026-05-07 16:05 52.69066 4.37309 13961 ft 367 kts 313°
2026-05-07 16:05 52.70895 4.34270 14593 ft 370 kts 314°
2026-05-07 16:06 52.72712 4.31252 15230 ft 373 kts 313°
2026-05-07 16:06 52.74523 4.28242 15881 ft 376 kts 313°
2026-05-07 16:06 52.76374 4.25162 16506 ft 380 kts 314°
2026-05-07 16:06 52.78245 4.22046 17111 ft 384 kts 314°
2026-05-07 16:07 52.80134 4.18896 17736 ft 387 kts 313°
2026-05-07 16:07 52.82036 4.15720 18359 ft 391 kts 313°
2026-05-07 16:07 52.83953 4.12513 18885 ft 394 kts 314°
2026-05-07 16:07 52.85888 4.09275 19413 ft 397 kts 314°
2026-05-07 16:08 52.87860 4.05969 19954 ft 400 kts 314°
2026-05-07 16:08 52.89794 4.02722 20489 ft 402 kts 314°
2026-05-07 16:08 52.91766 3.99406 21009 ft 405 kts 313°
2026-05-07 16:08 52.93751 3.96063 21517 ft 408 kts 314°
2026-05-07 16:09 52.95754 3.92688 21955 ft 413 kts 314°
2026-05-07 16:09 52.97780 3.89268 22383 ft 417 kts 314°
2026-05-07 16:09 52.99822 3.85815 22865 ft 420 kts 314°
2026-05-07 16:09 53.01869 3.82348 23379 ft 422 kts 314°
2026-05-07 16:10 53.03935 3.78846 23787 ft 426 kts 314°
2026-05-07 16:10 53.06018 3.75308 24142 ft 429 kts 314°
2026-05-07 16:10 53.08111 3.71749 24550 ft 431 kts 314°
2026-05-07 16:10 53.10217 3.68162 24876 ft 436 kts 314°
2026-05-07 16:11 53.12343 3.64537 25236 ft 438 kts 314°
2026-05-07 16:11 53.14468 3.60906 25619 ft 440 kts 314°
2026-05-07 16:11 53.16608 3.57244 25987 ft 442 kts 314°
2026-05-07 16:11 53.18759 3.53559 26342 ft 444 kts 314°
2026-05-07 16:12 53.20922 3.49848 26651 ft 448 kts 314°
2026-05-07 16:12 53.23094 3.46114 26947 ft 451 kts 314°
2026-05-07 16:12 53.25226 3.42257 27267 ft 453 kts 309°
2026-05-07 16:12 53.27048 3.37939 27580 ft 456 kts 303°
2026-05-07 16:13 53.28742 3.33442 27893 ft 458 kts 302°
2026-05-07 16:13 53.30425 3.28895 28168 ft 461 kts 302°
2026-05-07 16:13 53.32127 3.24330 28455 ft 464 kts 302°
2026-05-07 16:13 53.33851 3.19767 28740 ft 466 kts 303°
2026-05-07 16:14 53.35600 3.15183 29026 ft 468 kts 303°
2026-05-07 16:14 53.37364 3.10579 29300 ft 471 kts 303°
2026-05-07 16:14 53.39134 3.05952 29579 ft 473 kts 303°
2026-05-07 16:14 53.40911 3.01302 29886 ft 474 kts 303°
2026-05-07 16:15 53.42841 2.96828 30231 ft 473 kts 310°
2026-05-07 16:15 53.44950 2.92624 30589 ft 471 kts 311°
2026-05-07 16:15 53.47109 2.88493 30924 ft 470 kts 312°
2026-05-07 16:15 53.49280 2.84378 31211 ft 470 kts 312°
2026-05-07 16:16 53.51442 2.80253 31508 ft 470 kts 312°
2026-05-07 16:16 53.53588 2.76115 31827 ft 470 kts 311°
2026-05-07 16:16 53.55692 2.72015 32135 ft 469 kts 311°
2026-05-07 16:16 53.57815 2.67847 32435 ft 469 kts 311°
2026-05-07 16:17 53.59927 2.63680 32720 ft 469 kts 311°
2026-05-07 16:17 53.62038 2.59500 33018 ft 468 kts 311°
2026-05-07 16:17 53.64147 2.55317 33283 ft 469 kts 311°
2026-05-07 16:17 53.66258 2.51124 33523 ft 469 kts 311°
2026-05-07 16:18 53.68368 2.46926 33808 ft 468 kts 311°
2026-05-07 16:18 53.70500 2.42679 34115 ft 467 kts 311°
2026-05-07 16:18 53.72596 2.38499 34359 ft 467 kts 311°
2026-05-07 16:18 53.74690 2.34314 34622 ft 465 kts 310°
2026-05-07 16:19 53.76749 2.30193 34861 ft 465 kts 310°
2026-05-07 16:19 53.78832 2.26016 35078 ft 464 kts 310°
2026-05-07 16:19 53.80913 2.21837 35310 ft 464 kts 310°
2026-05-07 16:19 53.83017 2.17605 35536 ft 463 kts 310°
2026-05-07 16:20 53.85083 2.13442 35773 ft 462 kts 310°
2026-05-07 16:20 53.87150 2.09271 35989 ft 462 kts 310°
2026-05-07 16:20 53.89187 2.05152 36173 ft 462 kts 309°
2026-05-07 16:20 53.91251 2.00972 36383 ft 462 kts 309°
2026-05-07 16:21 53.93307 1.96801 36591 ft 461 kts 309°
2026-05-07 16:21 53.95361 1.92628 36810 ft 460 kts 309°
2026-05-07 16:21 53.97410 1.88456 36992 ft 460 kts 309°
2026-05-07 16:21 53.99455 1.84287 37204 ft 459 kts 309°
2026-05-07 16:22 54.01493 1.80124 37429 ft 458 kts 309°
2026-05-07 16:22 54.03526 1.75965 37629 ft 457 kts 308°
2026-05-07 16:22 54.05559 1.71798 37757 ft 458 kts 308°
2026-05-07 16:22 54.07593 1.67623 37922 ft 458 kts 308°
2026-05-07 16:23 54.09622 1.63451 38098 ft 457 kts 308°
2026-05-07 16:23 54.13689 1.55067 38108 ft 459 kts 308°
2026-05-07 16:24 54.17730 1.46687 38090 ft 456 kts 306°
2026-05-07 16:24 54.20910 1.37433 38110 ft 450 kts 294°
2026-05-07 16:25 54.23609 1.27804 38101 ft 449 kts 294°
2026-05-07 16:25 54.26309 1.18193 38095 ft 448 kts 294°
2026-05-07 16:26 54.29035 1.08605 38091 ft 448 kts 294°
2026-05-07 16:26 54.31301 1.00644 38094 ft 448 kts 294°
2026-05-07 16:27 54.34031 0.91038 38085 ft 449 kts 295°
2026-05-07 16:27 54.36750 0.81413 38082 ft 449 kts 294°
2026-05-07 16:28 54.39472 0.71743 38080 ft 451 kts 294°
2026-05-07 16:28 54.42197 0.62038 38074 ft 452 kts 294°
2026-05-07 16:29 54.44907 0.52299 38085 ft 452 kts 295°
2026-05-07 16:29 54.47627 0.42528 38072 ft 453 kts 294°
2026-05-07 16:30 54.50337 0.32730 38081 ft 454 kts 293°
2026-05-07 16:30 54.53062 0.22912 38072 ft 454 kts 293°
2026-05-07 16:31 54.55731 0.13160 38048 ft 453 kts 291°
2026-05-07 16:31 54.58423 0.03357 38055 ft 452 kts 294°
2026-05-07 16:32 54.61200 -0.06346 38044 ft 451 kts 294°
2026-05-07 16:32 54.63960 -0.16059 38064 ft 450 kts 292°
2026-05-07 16:33 54.66680 -0.25758 38054 ft 449 kts 294°
2026-05-07 16:33 54.69393 -0.35469 38044 ft 449 kts 294°
2026-05-07 16:34 54.72086 -0.45188 38047 ft 448 kts 293°
2026-05-07 16:34 54.74775 -0.54934 38037 ft 449 kts 294°
2026-05-07 16:35 54.77449 -0.64700 38035 ft 449 kts 292°
2026-05-07 16:35 54.80119 -0.74469 38026 ft 449 kts 292°
2026-05-07 16:36 54.82796 -0.84266 37921 ft 451 kts 292°
2026-05-07 16:36 54.84136 -0.89239 37372 ft 456 kts 293°
2026-05-07 16:36 54.85473 -0.94213 36811 ft 454 kts 291°
2026-05-07 16:36 54.86807 -0.99160 36246 ft 453 kts 294°
2026-05-07 16:37 54.88187 -1.04074 35655 ft 452 kts 293°
2026-05-07 16:37 54.89537 -1.09019 35019 ft 454 kts 293°
2026-05-07 16:37 54.90872 -1.13992 34368 ft 456 kts 292°
2026-05-07 16:37 54.92209 -1.19005 33641 ft 458 kts 292°
2026-05-07 16:38 54.93551 -1.24043 32912 ft 459 kts 292°
2026-05-07 16:38 54.94886 -1.29058 32445 ft 455 kts 292°
2026-05-07 16:38 54.96211 -1.34033 31958 ft 451 kts 292°
2026-05-07 16:38 54.97523 -1.38967 31490 ft 447 kts 292°
2026-05-07 16:39 54.98823 -1.43864 31037 ft 443 kts 292°
2026-05-07 16:39 55.00108 -1.48713 30592 ft 439 kts 292°
2026-05-07 16:39 55.01381 -1.53530 30135 ft 436 kts 292°
2026-05-07 16:39 55.02639 -1.58303 29617 ft 432 kts 292°
2026-05-07 16:40 55.03886 -1.63038 29137 ft 427 kts 292°
2026-05-07 16:40 55.05116 -1.67721 28672 ft 423 kts 291°
2026-05-07 16:40 55.06329 -1.72353 28201 ft 418 kts 291°
2026-05-07 16:40 55.07532 -1.76950 27741 ft 414 kts 291°
2026-05-07 16:41 55.08717 -1.81495 27300 ft 410 kts 291°
2026-05-07 16:41 55.09894 -1.86008 26846 ft 407 kts 291°
2026-05-07 16:41 55.11044 -1.90430 26372 ft 403 kts 291°
2026-05-07 16:41 55.12215 -1.94929 25925 ft 400 kts 292°
2026-05-07 16:42 55.13477 -1.99199 25379 ft 403 kts 296°
2026-05-07 16:42 55.14873 -2.03456 24846 ft 404 kts 297°
2026-05-07 16:42 55.16309 -2.07693 24302 ft 405 kts 297°
2026-05-07 16:42 55.17744 -2.11922 23761 ft 405 kts 297°
2026-05-07 16:43 55.19173 -2.16171 23133 ft 405 kts 297°
2026-05-07 16:43 55.20589 -2.20428 22535 ft 404 kts 296°
2026-05-07 16:43 55.21989 -2.24673 21968 ft 401 kts 296°
2026-05-07 16:43 55.23372 -2.28893 21429 ft 398 kts 296°
2026-05-07 16:44 55.24745 -2.33098 20886 ft 396 kts 296°
2026-05-07 16:44 55.26106 -2.37283 20348 ft 394 kts 296°
2026-05-07 16:44 55.27459 -2.41448 19808 ft 393 kts 296°
2026-05-07 16:44 55.28805 -2.45603 19285 ft 391 kts 296°
2026-05-07 16:45 55.30145 -2.49741 18757 ft 389 kts 296°
2026-05-07 16:45 55.31476 -2.53862 18235 ft 387 kts 296°
2026-05-07 16:45 55.32799 -2.57962 17647 ft 385 kts 296°
2026-05-07 16:45 55.34115 -2.62048 17083 ft 383 kts 296°
2026-05-07 16:46 55.35418 -2.66100 16559 ft 379 kts 296°
2026-05-07 16:46 55.36708 -2.70118 16041 ft 376 kts 296°
2026-05-07 16:46 55.37983 -2.74099 15517 ft 373 kts 296°
2026-05-07 16:46 55.39248 -2.78053 15036 ft 370 kts 295°
2026-05-07 16:47 55.40502 -2.81982 14523 ft 367 kts 295°
2026-05-07 16:47 55.41741 -2.85863 14031 ft 359 kts 295°
2026-05-07 16:47 55.42951 -2.89659 13510 ft 352 kts 295°
2026-05-07 16:47 55.44135 -2.93380 12994 ft 344 kts 295°
2026-05-07 16:48 55.45330 -2.96986 12520 ft 339 kts 302°
2026-05-07 16:48 55.47045 -2.99827 12087 ft 340 kts 323°
2026-05-07 16:48 55.49211 -3.01513 11626 ft 340 kts 338°
2026-05-07 16:48 55.51455 -3.02744 11159 ft 336 kts 339°
2026-05-07 16:49 55.53682 -3.03921 10690 ft 331 kts 339°
2026-05-07 16:49 55.55870 -3.05083 10228 ft 325 kts 340°
2026-05-07 16:49 55.58011 -3.06238 9844 ft 317 kts 339°
2026-05-07 16:49 55.60043 -3.07346 9860 ft 296 kts 339°
2026-05-07 16:50 55.61965 -3.08404 9654 ft 284 kts 338°
2026-05-07 16:50 55.63839 -3.09449 9238 ft 282 kts 338°
2026-05-07 16:50 55.65716 -3.10498 8796 ft 282 kts 338°
2026-05-07 16:50 55.67576 -3.11537 8416 ft 279 kts 338°
2026-05-07 16:51 55.69440 -3.12542 8063 ft 280 kts 343°
2026-05-07 16:51 55.71381 -3.12503 7847 ft 283 kts 16°
2026-05-07 16:51 55.73144 -3.10961 7605 ft 282 kts 29°
2026-05-07 16:51 55.74753 -3.09020 7405 ft 279 kts 44°
2026-05-07 16:52 55.76085 -3.06539 7142 ft 277 kts 49°
2026-05-07 16:52 55.77346 -3.04028 6901 ft 275 kts 49°
2026-05-07 16:52 55.78614 -3.01483 6595 ft 275 kts 49°
2026-05-07 16:52 55.79879 -2.98935 6299 ft 274 kts 49°
2026-05-07 16:53 55.81133 -2.96408 6072 ft 272 kts 49°
2026-05-07 16:53 55.82388 -2.93882 5773 ft 273 kts 49°
2026-05-07 16:53 55.83636 -2.91365 5558 ft 270 kts 50°
2026-05-07 16:53 55.84862 -2.88902 5468 ft 261 kts 49°
2026-05-07 16:54 55.86055 -2.86503 5306 ft 256 kts 50°
2026-05-07 16:54 55.87229 -2.84143 5100 ft 254 kts 49°
2026-05-07 16:54 55.88402 -2.81783 4841 ft 253 kts 50°
2026-05-07 16:54 55.89564 -2.79455 4618 ft 252 kts 49°
2026-05-07 16:55 55.90922 -2.77504 4267 ft 253 kts 19°
2026-05-07 16:55 55.92622 -2.77280 3997 ft 244 kts 339°
2026-05-07 16:55 55.94140 -2.78462 3782 ft 237 kts 329°
2026-05-07 16:55 55.95629 -2.79757 3480 ft 239 kts 329°
2026-05-07 16:56 55.97123 -2.81050 3219 ft 239 kts 329°
2026-05-07 16:56 55.98620 -2.82330 3019 ft 238 kts 329°
2026-05-07 16:56 56.01594 -2.84868 2997 ft 236 kts 329°
2026-05-07 16:57 56.03039 -2.86250 3004 ft 234 kts 320°
2026-05-07 16:57 56.04364 -2.87941 3000 ft 234 kts 319°
2026-05-07 16:57 56.05391 -2.90044 2976 ft 216 kts 285°
2026-05-07 16:57 56.05769 -2.92526 2983 ft 202 kts 279°
2026-05-07 16:58 56.06128 -2.94926 2982 ft 199 kts 279°
2026-05-07 16:58 56.06489 -2.97305 2976 ft 198 kts 279°
2026-05-07 16:58 56.06845 -2.99676 2980 ft 196 kts 276°
2026-05-07 16:58 56.06756 -3.01939 2981 ft 175 kts 239°
2026-05-07 16:59 56.06165 -3.03791 2983 ft 170 kts 243°
2026-05-07 16:59 56.05689 -3.05711 2975 ft 167 kts 238°
2026-05-07 16:59 56.05107 -3.07499 2995 ft 166 kts 236°
2026-05-07 16:59 56.04508 -3.09260 2991 ft 166 kts 236°
2026-05-07 17:00 56.03906 -3.11023 2991 ft 166 kts 236°
2026-05-07 17:00 56.03304 -3.12787 2990 ft 165 kts 236°
2026-05-07 17:00 56.02707 -3.14542 2865 ft 165 kts 235°
2026-05-07 17:00 56.02105 -3.16307 2669 ft 167 kts 235°
2026-05-07 17:01 56.01516 -3.18041 2431 ft 158 kts 236°
2026-05-07 17:01 56.00966 -3.19660 2214 ft 147 kts 235°
2026-05-07 17:01 56.00447 -3.21190 1995 ft 142 kts 234°
2026-05-07 17:01 55.99927 -3.22704 1818 ft 144 kts 233°
2026-05-07 17:02 55.99426 -3.24180 1720 ft 133 kts 233°
2026-05-07 17:02 55.98934 -3.25597 1566 ft 134 kts 234°
2026-05-07 17:02 55.98462 -3.27026 1368 ft 133 kts 236°
2026-05-07 17:02 55.97994 -3.28404 1140 ft 127 kts 234°
2026-05-07 17:03 55.97552 -3.29749 938 ft 125 kts 237°
2026-05-07 17:03 55.97098 -3.31044 760 ft 123 kts 234°
2026-05-07 17:03 55.96652 -3.32357 619 ft 126 kts 235°
2026-05-07 17:03 55.96202 -3.33708 428 ft 127 kts 235°
2026-05-07 17:04 55.95740 -3.35063 238 ft 128 kts 237°
2026-05-07 17:04 55.95291 -3.36392 123 ft 120 kts 236°
2026-05-07 17:04 55.94925 -3.37469 111 ft 74 kts 238°
2026-05-07 17:04 55.94770 -3.37926 113 ft 14 kts 238°
2026-05-07 17:05 55.94712 -3.38049 113 ft 11 kts 190°
2026-05-07 17:05 55.94640 -3.38000 112 ft 11 kts 149°
2026-05-07 17:05 55.94591 -3.37936 115 ft 8 kts 118°
2026-05-07 17:05 55.94605 -3.37843 113 ft 8 kts 59°
2026-05-07 17:06 55.94633 -3.37761 113 ft 8 kts 59°
2026-05-07 17:06 55.94666 -3.37664 114 ft 10 kts 59°
2026-05-07 17:06 55.94708 -3.37538 114 ft 13 kts 59°
2026-05-07 17:06 55.94761 -3.37384 113 ft 15 kts 58°
2026-05-07 17:07 55.94813 -3.37228 113 ft 14 kts 59°
2026-05-07 17:07 55.94862 -3.37085 114 ft 14 kts 59°
2026-05-07 17:07 55.94910 -3.36942 114 ft 13 kts 58°
2026-05-07 17:07 55.94915 -3.36826 115 ft 11 kts 140°
2026-05-07 17:08 55.94854 -3.36779 114 ft 9 kts 176°
2026-05-07 17:08 55.94804 -3.36767 115 ft 7 kts 140°
2026-05-07 17:08 55.94800 -3.36684 115 ft 7 kts 88°
2026-05-07 17:08 55.94801 -3.36645 115 ft 0 kts 89°
2026-05-07 17:09 55.94801 -3.36644 115 ft 0 kts 89°